NWS Regional Weather Roundup - New England Area


000
ASUS41 KBOX 172310
RWRBOX

REGIONAL WEATHER ROUNDUP
NATIONAL WEATHER SERVICE TAUNTON MA
600 PM EST SUN DEC 17 2017

NOTE:  "FAIR" INDICATES FEW OR NO CLOUDS BELOW 12,000 FEET WITH NO
SIGNIFICANT WEATHER AND/OR OBSTRUCTIONS TO VISIBILITY.

MAZALL-180000-
EASTERN MASSACHUSETTS

CITY           SKY/WX    TMP DP  RH WIND       PRES   REMARKS
BOSTON         NOT AVBL
BEVERLY        CLOUDY    23   4  44 NW6       30.24S WCI  16
LAWRENCE       PTCLDY    26   5  40 NW3       30.26S
BEDFORD        PTCLDY    24   4  42 CALM      30.24S
BLUE HILL        N/A     23  14  68 NW7       30.20F WCI  15
NORWOOD        CLOUDY    22  12  65 CALM      30.25F
MARSHFIELD     CLOUDY    25   9  50 W5        30.25S WCI  19
PLYMOUTH       PTCLDY    26   5  40 W3        30.25R
TAUNTON        CLOUDY    22   9  57 CALM      30.25R
NEW BEDFORD    MOCLDY    25   8  48 CALM      30.24S
$$

MAZALL-180000-
CAPE COD AND THE ISLANDS

CITY           SKY/WX    TMP DP  RH WIND       PRES   REMARKS
FALMOUTH       PTCLDY    21   9  58 CALM      30.26R
HYANNIS        PTCLDY    22   9  57 CALM      30.24R
CHATHAM        PTCLDY    23  10  57 CALM      30.26R
PROVINCETOWN   CLOUDY    30  11  45 NW15G21   30.25R WCI  19
NANTUCKET      CLOUDY    24  14  65 CALM      30.25R
MARTHAS VNYRD  CLOUDY   N/A N/A N/A NW5       30.25R
$$

MAZALL-180000-
CENTRAL AND WESTERN MASSACHUSETTS

CITY           SKY/WX    TMP DP  RH WIND       PRES   REMARKS
WORCESTER      PTCLDY    23   1  38 CALM      30.19R
FITCHBURG      CLOUDY    25   8  48 N3        30.24S
ORANGE         NOT AVBL
SPRINGFIELD    CLOUDY    25  10  52 CALM      30.24R
WESTFIELD      MOCLDY    26   5  40 W5        30.25R WCI  20
NORTH ADAMS    MOCLDY    17   9  70 CALM      30.24R
PITTSFIELD     CLOUDY    21   7  54 SW5       30.19R WCI  15
$$

RIZALL-180000-
RHODE ISLAND

CITY           SKY/WX    TMP DP  RH WIND       PRES   REMARKS
PROVIDENCE     CLOUDY    28   7  41 W5        30.26S WCI  23
NEWPORT        CLOUDY    29   6  38 NW6       30.25R WCI  23
BLOCK ISLAND   MOCLDY    30  13  49 NW9       30.26S WCI  22
SMITHFIELD     PTCLDY    24   8  50 W5        30.23S WCI  18
WESTERLY       CLOUDY    29  11  47 N5        30.27S WCI  24
$$

CTZALL-180000-
CONNECTICUT

CITY           SKY/WX    TMP DP  RH WIND       PRES   REMARKS
BRADLEY INTL   CLOUDY    26  10  50 W5        30.26R WCI  20
HARTFORD       MOCLDY    27  15  61 CALM      30.27R
BRIDGEPORT     CLOUDY    32  18  56 N3        30.26S
DANBURY        PTCLDY    28  18  66 CALM      30.25R
GROTON         PTCLDY    28  12  51 N3        30.27R
NEW HAVEN      PTCLDY    32  13  45 CALM      30.26R
CHESTER        FAIR      28   9  43 CALM      30.25R
MERIDEN        PTCLDY    27  16  63 CALM      30.26R
WILLIMANTIC    CLOUDY    27  13  55 CALM      30.27R
OXFORD         CLOUDY    26  11  52 CALM      30.23R
$$

MEZ002-015-021-024-NHZ003-005-008-011-012-014-VTZ005-008-180000-
NORTHERN NEW ENGLAND

CITY           SKY/WX    TMP DP  RH WIND       PRES   REMARKS
PORTLAND ME    PTCLDY    19   3  49 VRB5      30.25R WCI  12
BANGOR ME      PTCLDY    12   2  64 NW6       30.23R WCI   3
CONCORD NH     CLOUDY    19   4  51 N3        30.24S
MANCHESTER NH  CLOUDY    22   5  48 N5        30.24R WCI  16
NASHUA NH      CLOUDY    19   8  62 CALM      30.25S
PORTSMOUTH NH  MOCLDY    21   1  40 W7        30.23F WCI  13
JAFFREY NH     CLOUDY    16   7  67 CALM      30.18S
KEENE NH       PTCLDY    17  10  74 CALM      30.24R
BURLINGTON VT  PTCLDY    11   1  64 NW6       30.30R WCI   1
MT. WASHINGTON PTCLDY     7 -18  30 NW49        N/A  WCI -21
$$

NYZ052-076-180000-
EASTERN NEW YORK

CITY           SKY/WX    TMP DP  RH WIND       PRES   REMARKS
ALBANY         CLOUDY    24  10  55 NW6       30.27R WCI  17
NEW YORK CITY  MOCLDY    36  25  64 NE7       30.25R WCI  30
$$

ANZALL-180000-
MARINE OBSERVATIONS

STATION/POSITION TIME  TEMP    WIND        PRES    VSBY  WAVE
                       AIR SEA DIR/SP/G                  HT/PER
                 (UTC) (F)     (DEG/KT/KT) (MB)    (MI)  (FT/S)
BOSTON BUOY      2250   30 47  300/ 10/ 14 1023.9R         2/ 3
BUZZARDS BAY     2200   31     320/  9/ 12 1024.7R
NANTUCKET SOUND  2250   29 40  320/  8/ 10 1024.6          1
MASS BAY-STELLWA 2204   28 46  330/ 12/ 16 1024.1R         2/ 3
ISLE OF SHOALS   2200   24     300/ 18/ 21 1023.7R
S OF BLOCK IS    2243      52                N/A           3/ 6
$$

......................KEY.........................
  SKY/WX - SKY CONDITION/PRESENT WEATHER
  TMP    - TEMPERATURE IN FAHRENHEIT
  DWPT   - DEWPOINT IN FAHRENHEIT
  RH     - RELATIVE HUMIDITY IN PERCENT
  WIND   - DIRECTION AND SPEED IN MPH
  PRES   - MEAN SEA LEVEL PRESSURE IN INCHES OF HG
  WCI    - WIND CHILL INDEX
  VSB    - VISIBILITY IN MILES
  HX     - HEAT INDEX
  TC     - TEMPERATURE IN CELSIUS
  VRB    - VARIABLE WIND DIRECTION
  N/A    - NOT AVAILABLE

NWS BOx Office Area Forecast Discussion